Location: ??
(35.1715°N, 139.6450°E)
Time: 20:33:21
(UTC+00:00)

Cosmos 2322 - Pass Details

Date: 05 August 2024
Orbit: 841 x 853 km, 71.0° (Epoch: 18 September)

Event Time Altitude Azimuth Distance (km) Brightness Sun altitude
Exits shadow 17:01:10 64° 103° (ESE) 932 3.9 -29.2°
Drops below altitude 10° 17:06:41 10° 28° (NNE) 2,465 7.0 -28.5°
Sets 17:09:08 0° 25° (NNE) 3,402 8.0 -28.2°
